Regional Weather Roundup
Issued by NWS

Home | Current Version | Previous Version | Graphics & Text | Print | Product List | Glossary Off
Versions: 1 2 3 4 5 6 7 8 9 10 11 12 13 14 15 16 17 18 19 20 21 22 23 24 25 26 27 28 29 30 31 32 33 34 35 36 37 38 39 40 41 42 43 44 45 46 47 48 49 50

000
ASUS43 KMPX 202010
RWRMN
WEATHER ROUNDUP FOR MINNESOTA
NATIONAL WEATHER SERVICE TWIN CITIES/CHANHASSEN MN
300 PM CDT WED SEP 20 2017


NOTE: "FAIR" INDICATES FEW OR NO CLOUDS BELOW 12,000 FEET WITH NO
SIGNIFICANT WEATHER AND/OR OBSTRUCTIONS TO VISIBILITY. N/A MEANS
CURRENT SKY AND/OR WEATHER CONDITIONS ARE NOT AVAILABLE.

MNZ060>063-068>070-202100-
   Twin Cities Metro

CITY           SKY/WX    TMP DP  RH WIND       PRES   REMARKS
TWIN CITIES    SUNNY     75  53  46 W14       29.82R
ST PAUL        SUNNY     74  56  53 NW8       29.82R
CRYSTAL        SUNNY     72  48  42 W9        29.82R
BLAINE         MOSUNNY   75  54  46 NW9       29.82R
LAKEVILLE      SUNNY     73  55  53 NW5       29.83R
EDEN PRAIRIE   SUNNY     73  52  47 NW7       29.83R
SOUTH ST PAUL  SUNNY     74  52  46 NW7       29.82R
LAKE ELMO      FAIR      73  55  53 W6G16     29.83R
$$
MNZ001>005-007-008-013>017-022>024-027-028-202100-
   Northwest Minnesota

CITY           SKY/WX    TMP DP  RH WIND       PRES   REMARKS
BEMIDJI        SUNNY     66  41  39 W10       29.78S
HALLOCK        CLOUDY    72  34  25 SW15G23   29.68S
ROSEAU         MOSUNNY   68  41  37 SW17G26   29.71R
WARROAD        SUNNY     66  46  48 SW12G18   29.72R
THIEF RVR FALL MOSUNNY   68  41  37 SW18G24   29.75
CROOKSTON      SUNNY     70  39  32 W13G20    29.74S
FOSSTON        MOSUNNY   66  46  48 SW16      29.78S
DETROIT LAKES  SUNNY     66  41  39 W7        29.81S
MOORHEAD       SUNNY     70  36  28 SW13      29.78S
PARK RAPIDS    SUNNY     68  44  42 W9        29.80S
MAHNOMEN       FAIR      66  44  44 SW15      29.78S
$$
MNZ006-009>011-018-025>026-202100-
   North Central Minnesota

CITY           SKY/WX    TMP DP  RH WIND       PRES   REMARKS
BAUDETTE       MOSUNNY   66  42  41 W12G20    29.73R
FLAG ISLAND    SUNNY     64  43  45 SW12      29.69R
INTL FALLS     SUNNY     65  48  54 W9        29.74R
WASKISH        MOSUNNY   64  48  55 SW9       29.77R
BIG FORK       MOSUNNY   64  46  52 W7        29.78R
LONGVILLE      SUNNY     66  46  48 W7        29.79F
GRAND RAPIDS   SUNNY     66  48  52 W10       29.80R
CRANE LAKE     MOSUNNY   66  54  63 W6G16     29.77R
ORR            MOSUNNY   66  48  52 W7        29.74R
COOK           MOSUNNY   66  52  59 SW12G17   29.77R
WALKER         FAIR      65  43  45 W10G16    29.78F
$$
MNZ012-019>021-037-202100-
   Northeast Minnesota

CITY           SKY/WX    TMP DP  RH WIND       PRES   REMARKS
DULUTH         MOSUNNY   70  55  59 W13       29.77R
ELY            PTSUNNY   64  55  72 W10       29.75R
HIBBING        SUNNY     67  47  48 W8        29.78R
EVELETH        MOSUNNY   68  43  40 W15       29.78R
DULUTH HARBOR  SUNNY     73  57  56 SW17      29.75S
TWO HARBORS    MOSUNNY   73  61  64 W8G16     29.74R
GRAND MARAIS     N/A     65  62  90 CALM      29.71
G MARAIS ARPRT CLOUDY    63  59  88 SW3       29.76R FOG
$$
MNZ029>031-032-039>041-046>048-054>057-064-202100-
   West Central Minnesota

CITY           SKY/WX    TMP DP  RH WIND       PRES   REMARKS
FERGUS FALLS   SUNNY     68  39  34 W9G17     29.81R
WHEATON        SUNNY     70  36  28 W9G16     29.83R
MORRIS         SUNNY     72  41  33 W8        29.83R
ALEXANDRIA     SUNNY     68  41  37 W8        29.85R
ELBOW LAKE     FAIR      68  41  37 SW8       29.83R
WADENA         SUNNY     66  41  39 NW8       29.81R
GLENWOOD       SUNNY     68  45  42 SW8       29.85R
APPLETON       SUNNY     72  36  26 W10       29.83R
BENSON         SUNNY     72  41  33 W7        29.85S
ORTONVILLE     SUNNY     72  39  30 W5        29.83S
MADISON        SUNNY     72  39  30 W3        29.84R
WILLMAR        FAIR      70  48  46 W6        29.87R
$$
MNZ033>034-036-042>043-049>051-058-059-202100-
   Central Minnesota

CITY           SKY/WX    TMP DP  RH WIND       PRES   REMARKS
ST CLOUD       SUNNY     70  49  47 NW10      29.83R
SAUK CENTRE    FAIR      67  47  48 W9        29.84R
PAYNESVILLE    SUNNY     69  46  43 W8        29.85R
AITKIN         SUNNY     68  48  49 W7        29.79S
PINE RIVER     SUNNY     64  45  48 W6        29.84S
BRAINERD       SUNNY     67  44  43 VRB7      29.81R
LITTLE FALLS   SUNNY     68  34  28 W7        29.83R
LITCHFIELD     SUNNY     70  48  46 W5        29.85S
BUFFALO        SUNNY     71  47  43 W8        29.84S
MAPLE LAKE     SUNNY     71  51  48 NW7       29.85R
HUTCHINSON     SUNNY     72  50  46 W8        29.86S
$$
MNZ037-044-045-052-053-202100-
   East Central Minnesota

CITY           SKY/WX    TMP DP  RH WIND       PRES   REMARKS
PRINCETON      SUNNY     73  48  40 W12       29.83R
MORA           SUNNY     70  50  49 W7        29.83R
CAMBRIDGE      SUNNY     73  54  49 W7        29.82R
RUSH CITY      SUNNY     72  51  46 W7        29.82R
MOOSE LAKE     SUNNY     72  48  43 W9        29.77R
HINCKLEY       FAIR      72  52  49 NW7       29.81R
CLOQUET        SUNNY     70  46  43 SW10      29.78R
MCGREGOR       SUNNY     68  46  45 SW10G16   29.80R
$$
MNZ071>073-080-081-089-090-097-098-202100-
   Southwest Minnesota

CITY           SKY/WX    TMP DP  RH WIND       PRES   REMARKS
MONTEVIDEO     SUNNY     75  46  35 NW5       29.85R
GRANITE FALLS  SUNNY     72  49  44 W5        29.87R
CANBY          SUNNY     71  42  35 SW5       29.86S
MARSHALL       SUNNY     71  45  39 NW5       29.86R
REDWOOD FALLS  SUNNY     71  46  40 SW9       29.85S
OLIVIA         SUNNY     70  48  46 W7        29.85R
PIPESTONE      SUNNY     70  48  46 W3        29.87F
WINDOM         SUNNY     72  46  40 NW6       29.86S
WORTHINGTON    SUNNY     70  46  42 NW7       29.87S
JACKSON        SUNNY     70  48  46 CALM      29.87R
TRACY          SUNNY     71  47  42 NW7       29.86F
SLAYTON        SUNNY     69  43  38 W9        29.88F
$$
MNZ065>067-074>077-082>085-091>093-202100-
   South Central Minnesota

CITY           SKY/WX    TMP DP  RH WIND       PRES   REMARKS
MANKATO        SUNNY     72  52  49 NW10      29.85R
NEW ULM        SUNNY     72  46  40 NW3G9     29.85R
ST JAMES       SUNNY     72  46  40 NW8       29.86S
FAIRMONT       SUNNY     73  49  42 NW9       29.86R
GLENCOE        SUNNY     72  51  47 W8G16     29.84R
FARIBAULT      SUNNY     73  55  53 W6        29.84R
OWATONNA       SUNNY     73  55  53 NW9       29.84R
WASECA         SUNNY     72  54  53 NW8       29.86R
ALBERT LEA     SUNNY     79  55  44 NW8       29.83S
$$
MNZ078>079-086>088-094>096-202100-
   Southeast Minnesota

CITY           SKY/WX    TMP DP  RH WIND       PRES   REMARKS
ROCHESTER      PTSUNNY   74  61  63 NW12      29.84R
RED WING       SUNNY     79  52  38 NW8       29.81R
STANTON        SUNNY     75  56  52 W9        29.82R
DODGE CENTER   PTSUNNY   73  55  53 W12       29.84R
WINONA         PTSUNNY   79  64  61 NW9       29.78R
AUSTIN         PTSUNNY   75  57  53 NW10      29.83R
PRESTON        MOSUNNY   77  65  65 N12       29.81R
$$
ABBREVIATIONS USED IN REMARKS
   TC - TEMPERATURES IN CELSIUS
  WCI - WIND CHILL INDEX
   HX - HEAT INDEX
  VSB - VISIBILITY
$$




USA.gov is the U.S. government's official web portal to all federal, state and local government web resources and services.